Regional Weather Roundup
Issued by NWS Little Rock, AR

Home | Current Version | Previous Version | Graphics & Text | Print | Product List | Glossary On
Versions: 1 2 3 4 5 6 7 8 9 10 11 12 13 14 15 16 17 18 19 20 21 22 23 24 25 26 27 28 29 30 31 32 33 34 35 36 37 38 39 40 41 42 43 44 45 46 47 48 49 50
000
ASUS44 KLZK 011105
RWRLZK

WEATHER ROUNDUP FOR ARKANSAS
NATIONAL WEATHER SERVICE LITTLE ROCK AR
600 AM CDT WED JUL 01 2015

NOTE: "FAIR" INDICATES FEW OR NO CLOUDS BELOW 12,000 FEET WITH NO
SIGNIFICANT WEATHER AND/OR OBSTRUCTIONS TO VISIBILITY.

ARZ001-003-010-029-011200-
NORTHWEST ARKANSAS

CITY           SKY/WX    TMP DP  RH WIND       PRES   REMARKS
FAYETTEVILLE   MOCLDY    74  71  91 S6        29.96R
FORT SMITH     PTCLDY    77  69  76 SW3       29.92S
HARRISON       CLOUDY    78  68  71 W9        29.95R
BENTONVILLE    MOCLDY    75  68  78 SW7       29.95S
ROGERS         CLOUDY    75  71  87 SW10      29.95R
SILOAM SPGS    PTCLDY    75  66  73 SW8       29.96R
HIGHFILL       MOCLDY    75  72  90 SW8       29.94S
SPRINGDALE     CLEAR     77  72  83 SW7       29.97
$$

ARZ004-005-016-011200-
NORTH CENTRAL ARKANSAS

CITY           SKY/WX    TMP DP  RH WIND       PRES   REMARKS
BATESVILLE     MOCLDY    75  70  83 CALM      29.92S
FLIPPIN        CLOUDY    75  70  83 CALM      29.91R
MTN HOME       CLOUDY    75  70  84 SW5       29.93R
$$

ARZ040-041-011200-
WEST CENTRAL ARKANSAS

CITY           SKY/WX    TMP DP  RH WIND       PRES   REMARKS
MENA           PTCLDY    77  72  83 SW3       29.98S
MOUNT IDA      MOCLDY    76  69  79 VRB3      29.94S
$$

ARZ009-017-025-026-028-011200-
NORTHEAST ARKANSAS

CITY           SKY/WX    TMP DP  RH WIND       PRES   REMARKS
JONESBORO      MOCLDY    77  72  84 W6        29.91S
NEWPORT        PTCLDY    75  73  93 CALM      29.93R
WALNUT RIDGE   CLOUDY    75  70  83 W5        29.92S
BLYTHEVILLE    CLOUDY    76  73  91 CALM      29.92S
$$

ARZ022-023-033-042-044-011200-
CENTRAL ARKANSAS

CITY           SKY/WX    TMP DP  RH WIND       PRES   REMARKS
LITTLE ROCK    PTCLDY    74  69  85 S5        29.94S
N LITTLE ROCK    N/A     75  72  89 SW5       29.94S
JACKSONVILLE   PTCLDY    74  70  87 W3        29.93R
SEARCY         PTCLDY    74  71  91 W3        29.94R
HOT SPRINGS    MOCLDY    73  70  90 SW5       29.96S
RUSSELLVILLE   CLOUDY    73  71  93 CALM      29.92S
CLINTON        FAIR      68  68 100 CALM      29.95R FOG
$$

ARZ036-011200-
EAST ARKANSAS

CITY           SKY/WX    TMP DP  RH WIND       PRES   REMARKS
WEST MEMPHIS   PTCLDY    74  72  93 S6        29.94R
$$

ARZ050-053-066-070-073-011200-
SOUTHWEST ARKANSAS

CITY           SKY/WX    TMP DP  RH WIND       PRES   REMARKS
ARKADELPHIA    FAIR      71  71 100 CALM      29.97R FOG
CAMDEN         CLEAR     70  66  88 NE5       29.99R
TEXARKANA      CLEAR     72  70  93 SW7       30.00R
EL DORADO      CLEAR     70  68  93 S6        30.01R
DE QUEEN       PTCLDY    69  69 100 CALM      29.96R
$$

ARZ056-057-069-011200-
SOUTHEAST ARKANSAS

CITY           SKY/WX    TMP DP  RH WIND       PRES   REMARKS
PINE BLUFF     CLEAR     71  68  90 SW6       29.96S
STUTTGART      CLEAR     73  68  83 MISG      29.95R
MONTICELLO     CLEAR     72  71  97 W5        29.97R

$$





USA.gov is the U.S. government's official web portal to all federal, state and local government web resources and services.